| time (UTC) | temp F | wind direction | speed MPH | gust MPH | rain 1hr in | rain 24hr in | rain mn in | humidity % | barometer mb |
| 20260507202636 | 61 | 0 | 5.0 | 14.0 | 0.00 | 0.00 | 0.00 | 39 | 1010.8 |
| 20260507202134 | 62 | 0 | 6.0 | 14.0 | 0.00 | 0.00 | 0.00 | 38 | 1010.9 |
| 20260507201633 | 62 | 0 | 7.0 | 15.0 | 0.00 | 0.00 | 0.00 | 40 | 1011.0 |
| 20260507201133 | 62 | 0 | 6.0 | 15.0 | 0.00 | 0.00 | 0.00 | 39 | 1010.7 |
| 20260507200630 | 62 | 0 | 5.0 | 14.0 | 0.00 | 0.00 | 0.00 | 39 | 1010.9 |
| 20260507200131 | 61 | 0 | 5.0 | 14.0 | 0.00 | 0.00 | 0.00 | 39 | 1010.9 |
| 20260507195631 | 62 | 0 | 5.0 | 14.0 | 0.00 | 0.00 | 0.00 | 39 | 1011.1 |
| 20260507195130 | 62 | 342 | 5.0 | 11.0 | 0.00 | 0.00 | 0.00 | 41 | 1011.2 |
| 20260507194628 | 62 | 17 | 5.0 | 13.0 | 0.00 | 0.00 | 0.00 | 42 | 1011.4 |
| 20260507194400 | 62 | 0 | 5.0 | 13.0 | 0.00 | 0.00 | 0.00 | 40 | 1011.6 |
| 20260507193628 | 62 | 0 | 5.0 | 14.0 | 0.00 | 0.00 | 0.00 | 42 | 1011.6 |
| 20260507193401 | 61 | 190 | 5.0 | 14.0 | 0.00 | 0.00 | 0.00 | 44 | 1011.6 |
| 20260507192630 | 61 | 0 | 5.0 | 12.0 | 0.00 | 0.00 | 0.00 | 42 | 1011.6 |
| 20260507192126 | 60 | 280 | 6.0 | 16.0 | 0.00 | 0.00 | 0.00 | 41 | 1011.3 |
| 20260507191856 | 61 | 0 | 6.0 | 16.0 | 0.00 | 0.00 | 0.00 | 40 | 1011.4 |
| 20260507191356 | 61 | 9 | 4.0 | 16.0 | 0.00 | 0.00 | 0.00 | 41 | 1011.4 |
| 20260507190626 | 61 | 0 | 3.0 | 9.0 | 0.00 | 0.00 | 0.00 | 45 | 1011.6 |
| 20260507190123 | 60 | 0 | 4.0 | 13.0 | 0.00 | 0.00 | 0.00 | 42 | 1011.4 |
| 20260507185624 | 60 | 0 | 5.0 | 13.0 | 0.00 | 0.00 | 0.00 | 42 | 1011.6 |
| 20260507185401 | 61 | 0 | 4.0 | 11.0 | 0.00 | 0.00 | 0.00 | 42 | 1011.6 |
| 20260507185124 | 60 | 0 | 5.0 | 11.0 | 0.00 | 0.00 | 0.00 | 42 | 1011.4 |
| 20260507183620 | 61 | 0 | 5.0 | 15.0 | 0.00 | 0.00 | 0.00 | 40 | 1011.9 |
| 20260507183120 | 62 | 0 | 6.0 | 15.0 | 0.00 | 0.00 | 0.00 | 40 | 1011.9 |
| 20260507182620 | 61 | 0 | 5.0 | 15.0 | 0.00 | 0.00 | 0.00 | 41 | 1011.8 |
| 20260507182119 | 61 | 0 | 5.0 | 15.0 | 0.00 | 0.00 | 0.00 | 43 | 1011.7 |
| 20260507181619 | 61 | 0 | 3.0 | 10.0 | 0.00 | 0.00 | 0.00 | 41 | 1011.8 |
| 20260507181351 | 61 | 348 | 5.0 | 13.0 | 0.00 | 0.00 | 0.00 | 40 | 1011.8 |
| 20260507181243 | 62 | 196 | 6.0 | 13.0 | 0.00 | 0.00 | 0.00 | 40 | 1011.9 |
| 20260507180120 | 62 | 251 | 4.0 | 10.0 | 0.00 | 0.00 | 0.00 | 39 | 1011.9 |
| 20260507175619 | 61 | 0 | 3.0 | 10.0 | 0.00 | 0.00 | 0.00 | 43 | 1011.8 |
| 20260507175119 | 61 | 0 | 3.0 | 9.0 | 0.00 | 0.00 | 0.00 | 41 | 1011.7 |
| 20260507174619 | 61 | 210 | 3.0 | 8.0 | 0.00 | 0.00 | 0.00 | 41 | 1011.9 |
| 20260507174117 | 61 | 164 | 4.0 | 10.0 | 0.00 | 0.00 | 0.00 | 40 | 1012.0 |
| 20260507173618 | 62 | 0 | 4.0 | 10.0 | 0.00 | 0.00 | 0.00 | 40 | 1012.1 |
| 20260507173350 | 61 | 0 | 4.0 | 11.0 | 0.00 | 0.00 | 0.00 | 43 | 1012.3 |
| 20260507172618 | 61 | 0 | 4.0 | 11.0 | 0.00 | 0.00 | 0.00 | 41 | 1012.3 |
| 20260507172118 | 60 | 0 | 4.0 | 10.0 | 0.00 | 0.00 | 0.00 | 46 | 1012.3 |
| 20260507171617 | 60 | 0 | 3.0 | 10.0 | 0.00 | 0.00 | 0.00 | 44 | 1012.2 |
| 20260507171117 | 58 | 210 | 4.0 | 8.0 | 0.00 | 0.00 | 0.00 | 49 | 1012.3 |
| 20260507170616 | 58 | 0 | 4.0 | 10.0 | 0.00 | 0.00 | 0.00 | 43 | 1012.1 |
| 20260507170117 | 58 | 277 | 3.0 | 10.0 | 0.00 | 0.00 | 0.00 | 43 | 1012.2 |
| 20260507165617 | 57 | 60 | 3.0 | 9.0 | 0.00 | 0.00 | 0.00 | 48 | 1012.4 |
| 20260507165117 | 57 | 0 | 3.0 | 9.0 | 0.00 | 0.00 | 0.00 | 44 | 1012.4 |
| 20260507164614 | 57 | 0 | 3.0 | 8.0 | 0.00 | 0.00 | 0.00 | 44 | 1012.5 |
| 20260507164115 | 57 | 336 | 4.0 | 11.0 | 0.00 | 0.00 | 0.00 | 44 | 1012.7 |
| 20260507163614 | 58 | 0 | 4.0 | 11.0 | 0.00 | 0.00 | 0.00 | 43 | 1012.7 |
| 20260507163115 | 58 | 0 | 4.0 | 10.0 | 0.00 | 0.00 | 0.00 | 43 | 1012.8 |
| 20260507162615 | 59 | 0 | 4.0 | 10.0 | 0.00 | 0.00 | 0.00 | 44 | 1012.8 |
| 20260507162114 | 59 | 0 | 4.0 | 9.0 | 0.00 | 0.00 | 0.00 | 47 | 1012.7 |
| 20260507161613 | 58 | 0 | 5.0 | 11.0 | 0.00 | 0.00 | 0.00 | 44 | 1012.9 |
| 20260507161113 | 58 | 280 | 4.0 | 11.0 | 0.00 | 0.00 | 0.00 | 46 | 1012.9 |
| 20260507160614 | 58 | 0 | 3.0 | 8.0 | 0.00 | 0.00 | 0.00 | 47 | 1013.0 |
| 20260507160113 | 58 | 0 | 3.0 | 9.0 | 0.00 | 0.00 | 0.00 | 46 | 1013.0 |
| 20260507155611 | 58 | 0 | 4.0 | 9.0 | 0.00 | 0.00 | 0.00 | 46 | 1013.0 |
| 20260507155115 | 58 | 350 | 5.0 | 10.0 | 0.00 | 0.00 | 0.00 | 45 | 1013.1 |
| 20260507154613 | 58 | 0 | 5.0 | 12.0 | 0.00 | 0.00 | 0.00 | 46 | 1013.1 |
| 20260507154113 | 58 | 0 | 5.0 | 12.0 | 0.00 | 0.00 | 0.00 | 45 | 1013.1 |
| 20260507153610 | 57 | 0 | 5.0 | 11.0 | 0.00 | 0.00 | 0.00 | 46 | 1013.2 |
| 20260507153109 | 57 | 0 | 4.0 | 11.0 | 0.00 | 0.00 | 0.00 | 46 | 1013.1 |
| 20260507152609 | 57 | 0 | 4.0 | 10.0 | 0.00 | 0.00 | 0.00 | 46 | 1013.1 |
| 20260507152108 | 57 | 0 | 3.0 | 10.0 | 0.00 | 0.00 | 0.00 | 46 | 1013.2 |
| 20260507151608 | 56 | 327 | 4.0 | 9.0 | 0.00 | 0.00 | 0.00 | 44 | 1013.2 |
| 20260507151108 | 56 | 260 | 5.0 | 10.0 | 0.00 | 0.00 | 0.00 | 45 | 1013.2 |
| 20260507150606 | 57 | 17 | 4.0 | 10.0 | 0.00 | 0.02 | 0.00 | 44 | 1013.3 |
| 20260507150107 | 57 | 207 | 3.0 | 9.0 | 0.00 | 0.03 | 0.00 | 52 | 1013.5 |
| 20260507145605 | 57 | 0 | 3.0 | 9.0 | 0.00 | 0.03 | 0.00 | 47 | 1013.5 |
| 20260507145105 | 57 | 189 | 4.0 | 9.0 | 0.00 | 0.03 | 0.00 | 48 | 1013.6 |
| 20260507144605 | 57 | 0 | 3.0 | 9.0 | 0.00 | 0.03 | 0.00 | 49 | 1013.6 |
| 20260507144106 | 57 | 0 | 3.0 | 9.0 | 0.00 | 0.03 | 0.00 | 49 | 1013.6 |
| 20260507143837 | 57 | 187 | 3.0 | 9.0 | 0.00 | 0.03 | 0.00 | 51 | 1013.8 |
| 20260507143105 | 56 | 232 | 3.0 | 8.0 | 0.00 | 0.03 | 0.00 | 52 | 1013.9 |
| 20260507142843 | 56 | 19 | 2.0 | 8.0 | 0.00 | 0.03 | 0.00 | 52 | 1013.9 |
| 20260507142605 | 56 | 0 | 2.0 | 8.0 | 0.00 | 0.03 | 0.00 | 48 | 1013.8 |
| 20260507141607 | 55 | 275 | 4.0 | 10.0 | 0.00 | 0.03 | 0.00 | 49 | 1014.0 |
| 20260507141104 | 55 | 0 | 5.0 | 10.0 | 0.00 | 0.03 | 0.00 | 50 | 1014.0 |
| 20260507140603 | 55 | 338 | 4.0 | 10.0 | 0.00 | 0.03 | 0.00 | 48 | 1014.1 |
| 20260507135602 | 55 | 0 | 2.0 | 9.0 | 0.00 | 0.03 | 0.00 | 53 | 1014.0 |
| 20260507135101 | 55 | 10 | 2.0 | 6.0 | 0.00 | 0.03 | 0.00 | 55 | 1014.2 |
| 20260507134601 | 55 | 0 | 3.0 | 7.0 | 0.00 | 0.03 | 0.00 | 53 | 1014.3 |
| 20260507134058 | 55 | 0 | 3.0 | 8.0 | 0.00 | 0.03 | 0.00 | 56 | 1014.4 |
| 20260507133557 | 55 | 0 | 3.0 | 8.0 | 0.00 | 0.03 | 0.00 | 58 | 1014.4 |
| 20260507133328 | 54 | 0 | 3.0 | 6.0 | 0.00 | 0.03 | 0.00 | 56 | 1014.5 |
| 20260507132557 | 54 | 200 | 4.0 | 8.0 | 0.00 | 0.03 | 0.00 | 58 | 1014.5 |
| 20260507132326 | 54 | 0 | 4.0 | 8.0 | 0.00 | 0.03 | 0.00 | 58 | 1014.4 |
| 20260507131556 | 53 | 0 | 3.0 | 8.0 | 0.00 | 0.03 | 0.00 | 58 | 1014.5 |
| 20260507131056 | 53 | 0 | 2.0 | 6.0 | 0.00 | 0.03 | 0.00 | 58 | 1014.3 |
| 20260507130554 | 52 | 248 | 3.0 | 6.0 | 0.00 | 0.03 | 0.00 | 57 | 1014.3 |
| 20260507130325 | 52 | 223 | 3.0 | 5.0 | 0.00 | 0.03 | 0.00 | 60 | 1014.2 |
| 20260507125822 | 51 | 0 | 2.0 | 5.0 | 0.00 | 0.03 | 0.00 | 63 | 1014.1 |
| 20260507125051 | 51 | 0 | 2.0 | 5.0 | 0.00 | 0.03 | 0.00 | 64 | 1014.1 |
| 20260507124551 | 51 | 163 | 2.0 | 4.0 | 0.00 | 0.03 | 0.00 | 64 | 1014.1 |
| 20260507124050 | 50 | 186 | 2.0 | 5.0 | 0.00 | 0.03 | 0.00 | 64 | 1014.1 |
| 20260507123550 | 49 | 151 | 2.0 | 5.0 | 0.00 | 0.03 | 0.00 | 65 | 1014.1 |
| 20260507123051 | 48 | 0 | 2.0 | 5.0 | 0.00 | 0.04 | 0.00 | 65 | 1014.0 |
| 20260507122550 | 48 | 159 | 2.0 | 4.0 | 0.00 | 0.04 | 0.00 | 66 | 1014.1 |
| 20260507122048 | 47 | 0 | 3.0 | 4.0 | 0.00 | 0.04 | 0.00 | 68 | 1013.9 |
| 20260507121545 | 46 | 141 | 2.0 | 4.0 | 0.00 | 0.04 | 0.00 | 69 | 1014.0 |
| 20260507121320 | 46 | 0 | 2.0 | 4.0 | 0.00 | 0.04 | 0.00 | 70 | 1014.0 |
| 20260507120545 | 45 | 138 | 2.0 | 4.0 | 0.00 | 0.04 | 0.00 | 71 | 1013.8 |
| 20260507120046 | 44 | 89 | 2.0 | 3.0 | 0.00 | 0.04 | 0.00 | 72 | 1013.7 |
| 20260507115544 | 43 | 69 | 2.0 | 3.0 | 0.00 | 0.04 | 0.00 | 72 | 1013.6 |
| 20260507115316 | 42 | 67 | 2.0 | 3.0 | 0.00 | 0.04 | 0.00 | 72 | 1013.7 |
| 20260507114543 | 42 | 67 | 1.0 | 2.0 | 0.00 | 0.04 | 0.00 | 72 | 1013.5 |
| 20260507114042 | 41 | 69 | 0.0 | 2.0 | 0.00 | 0.04 | 0.00 | 71 | 1013.5 |
| 20260507113543 | 41 | 0 | 0.0 | 0.0 | 0.00 | 0.04 | 0.00 | 71 | 1013.4 |
| 20260507113040 | 40 | 0 | 0.0 | 0.0 | 0.00 | 0.04 | 0.00 | 71 | 1013.2 |
| 20260507112541 | 40 | 0 | 0.0 | 0.0 | 0.00 | 0.04 | 0.00 | 71 | 1013.2 |
| 20260507112040 | 40 | 0 | 0.0 | 0.0 | 0.00 | 0.04 | 0.00 | 71 | 1013.1 |
| 20260507111538 | 40 | 0 | 0.0 | 0.0 | 0.00 | 0.04 | 0.00 | 71 | 1013.1 |
| 20260507111037 | 40 | 0 | 0.0 | 0.0 | 0.00 | 0.04 | 0.00 | 71 | 1012.9 |
| 20260507110535 | 40 | 0 | 0.0 | 0.0 | 0.00 | 0.04 | 0.00 | 71 | 1012.8 |
| 20260507110037 | 40 | 0 | 0.0 | 0.0 | 0.00 | 0.05 | 0.00 | 71 | 1012.7 |
| 20260507105807 | 40 | 0 | 0.0 | 0.0 | 0.00 | 0.06 | 0.00 | 71 | 1012.7 |
| 20260507105036 | 40 | 0 | 0.0 | 0.0 | 0.00 | 0.06 | 0.00 | 71 | 1012.7 |
| 20260507104534 | 40 | 0 | 0.0 | 0.0 | 0.00 | 0.06 | 0.00 | 71 | 1012.7 |
| 20260507104034 | 40 | 0 | 0.0 | 0.0 | 0.00 | 0.07 | 0.00 | 71 | 1012.7 |
| 20260507103534 | 41 | 0 | 0.0 | 0.0 | 0.00 | 0.07 | 0.00 | 71 | 1012.6 |
| 20260507103034 | 41 | 0 | 0.0 | 0.0 | 0.00 | 0.08 | 0.00 | 72 | 1012.5 |
| 20260507102533 | 41 | 0 | 0.0 | 0.0 | 0.00 | 0.09 | 0.00 | 71 | 1012.6 |
| 20260507102032 | 41 | 0 | 0.0 | 0.0 | 0.00 | 0.11 | 0.00 | 71 | 1012.5 |
| 20260507101531 | 41 | 0 | 0.0 | 0.0 | 0.00 | 0.11 | 0.00 | 71 | 1012.6 |
| 20260507101302 | 41 | 0 | 0.0 | 0.0 | 0.00 | 0.13 | 0.00 | 71 | 1012.5 |
| 20260507100529 | 42 | 0 | 0.0 | 0.0 | 0.00 | 0.14 | 0.00 | 71 | 1012.5 |
| 20260507100028 | 42 | 0 | 0.0 | 0.0 | 0.00 | 0.16 | 0.00 | 71 | 1012.5 |
| 20260507095526 | 42 | 0 | 0.0 | 0.0 | 0.00 | 0.16 | 0.00 | 71 | 1012.5 |
| 20260507095026 | 42 | 0 | 0.0 | 0.0 | 0.00 | 0.16 | 0.00 | 71 | 1012.5 |
| 20260507094524 | 42 | 0 | 0.0 | 0.0 | 0.00 | 0.17 | 0.00 | 70 | 1012.5 |
| 20260507094024 | 43 | 0 | 0.0 | 0.0 | 0.00 | 0.17 | 0.00 | 70 | 1012.6 |
| 20260507093525 | 43 | 0 | 0.0 | 0.0 | 0.00 | 0.19 | 0.00 | 70 | 1012.6 |
| 20260507093023 | 43 | 0 | 0.0 | 0.0 | 0.00 | 0.20 | 0.00 | 71 | 1012.5 |
| 20260507092520 | 43 | 0 | 0.0 | 0.0 | 0.00 | 0.21 | 0.00 | 70 | 1012.6 |
| 20260507092021 | 44 | 0 | 0.0 | 0.0 | 0.00 | 0.22 | 0.00 | 70 | 1012.6 |
| 20260507091519 | 44 | 0 | 0.0 | 0.0 | 0.00 | 0.23 | 0.00 | 69 | 1012.6 |
| 20260507091018 | 44 | 0 | 0.0 | 0.0 | 0.00 | 0.23 | 0.00 | 69 | 1012.7 |
| 20260507090518 | 44 | 0 | 0.0 | 0.0 | 0.00 | 0.23 | 0.00 | 69 | 1012.6 |
| 20260507090016 | 44 | 0 | 0.0 | 0.0 | 0.00 | 0.24 | 0.00 | 69 | 1012.8 |
| 20260507085514 | 44 | 0 | 0.0 | 0.0 | 0.00 | 0.24 | 0.00 | 69 | 1012.8 |
| 20260507085013 | 44 | 0 | 0.0 | 0.0 | 0.00 | 0.25 | 0.00 | 69 | 1012.7 |
| 20260507084514 | 45 | 0 | 0.0 | 0.0 | 0.00 | 0.25 | 0.00 | 68 | 1013.4 |
| 20260507084013 | 45 | 0 | 0.0 | 0.0 | 0.00 | 0.26 | 0.00 | 67 | 1013.4 |
| 20260507083514 | 45 | 0 | 0.0 | 0.0 | 0.00 | 0.27 | 0.00 | 66 | 1013.4 |
| 20260507083013 | 46 | 0 | 0.0 | 0.0 | 0.00 | 0.27 | 0.00 | 66 | 1013.4 |
| 20260507082742 | 46 | 0 | 0.0 | 0.0 | 0.00 | 0.27 | 0.00 | 66 | 1013.4 |
| 20260507082003 | 46 | 0 | 0.0 | 0.0 | 0.00 | 0.27 | 0.00 | 66 | 1013.3 |
| 20260507081501 | 46 | 0 | 0.0 | 0.0 | 0.00 | 0.27 | 0.00 | 65 | 1013.4 |
| 20260507081000 | 47 | 0 | 0.0 | 0.0 | 0.00 | 0.27 | 0.00 | 66 | 1013.4 |
| 20260507080458 | 47 | 0 | 0.0 | 0.0 | 0.00 | 0.27 | 0.00 | 66 | 1013.4 |
| 20260507075957 | 47 | 0 | 0.0 | 0.0 | 0.00 | 0.28 | 0.00 | 66 | 1013.3 |
| 20260507075452 | 48 | 0 | 0.0 | 0.0 | 0.00 | 0.28 | 0.00 | 66 | 1013.2 |
| 20260507074950 | 48 | 0 | 0.0 | 0.0 | 0.00 | 0.28 | 0.00 | 66 | 1013.3 |
| 20260507074719 | 48 | 0 | 0.0 | 0.0 | 0.00 | 0.28 | 0.00 | 66 | 1013.2 |
| 20260507073946 | 48 | 0 | 0.0 | 0.0 | 0.00 | 0.28 | 0.00 | 66 | 1013.2 |
| 20260507073446 | 48 | 0 | 0.0 | 0.0 | 0.00 | 0.28 | 0.00 | 66 | 1013.1 |
| 20260507072940 | 48 | 0 | 0.0 | 0.0 | 0.00 | 0.28 | 0.00 | 66 | 1013.1 |
| 20260507072437 | 48 | 0 | 0.0 | 2.0 | 0.00 | 0.28 | 0.00 | 66 | 1013.0 |
| 20260507071940 | 49 | 0 | 0.0 | 0.0 | 0.00 | 0.28 | 0.00 | 65 | 1013.1 |
| 20260507071936 | 49 | 0 | 0.0 | 2.0 | 0.00 | 0.28 | 0.00 | 66 | 1013.0 |
| 20260507070933 | 49 | 0 | 0.0 | 0.0 | 0.00 | 0.28 | 0.00 | 65 | 1013.0 |
| 20260507070428 | 49 | 0 | 0.0 | 0.0 | 0.00 | 0.28 | 0.00 | 65 | 1013.0 |
| 20260507065926 | 49 | 0 | 0.0 | 2.0 | 0.00 | 0.28 | 0.00 | 65 | 1013.1 |
| 20260507065427 | 49 | 0 | 1.0 | 3.0 | 0.00 | 0.28 | 0.00 | 65 | 1013.1 |
| 20260507065200 | 49 | 0 | 1.0 | 4.0 | 0.00 | 0.28 | 0.00 | 64 | 1013.2 |
| 20260507064428 | 49 | 0 | 2.0 | 4.0 | 0.00 | 0.28 | 0.00 | 64 | 1013.2 |
| 20260507063930 | 49 | 0 | 2.0 | 4.0 | 0.00 | 0.28 | 0.00 | 64 | 1013.1 |
| 20260507063423 | 49 | 349 | 2.0 | 8.0 | 0.00 | 0.28 | 0.00 | 65 | 1013.1 |
| 20260507062923 | 49 | 23 | 2.0 | 8.0 | 0.00 | 0.28 | 0.00 | 65 | 1013.1 |
| 20260507062423 | 49 | 0 | 2.0 | 5.0 | 0.00 | 0.28 | 0.00 | 65 | 1013.1 |
| 20260507061924 | 49 | 0 | 2.0 | 5.0 | 0.00 | 0.28 | 0.00 | 65 | 1013.2 |
| 20260507061422 | 49 | 349 | 1.0 | 3.0 | 0.00 | 0.28 | 0.00 | 65 | 1013.1 |
| 20260507061154 | 49 | 337 | 1.0 | 3.0 | 0.00 | 0.28 | 0.00 | 65 | 1013.2 |
| 20260507060653 | 50 | 0 | 1.0 | 3.0 | 0.00 | 0.28 | 0.00 | 65 | 1013.3 |
| 20260507055919 | 50 | 0 | 1.0 | 5.0 | 0.00 | 0.28 | 0.00 | 66 | 1013.2 |
| 20260507055419 | 50 | 0 | 2.0 | 5.0 | 0.00 | 0.28 | 0.00 | 66 | 1013.2 |
| 20260507054916 | 50 | 0 | 1.0 | 3.0 | 0.00 | 0.28 | 0.00 | 66 | 1013.4 |
| 20260507054416 | 50 | 0 | 1.0 | 3.0 | 0.00 | 0.28 | 0.00 | 66 | 1013.4 |
| 20260507053916 | 50 | 0 | 1.0 | 3.0 | 0.00 | 0.28 | 0.00 | 65 | 1013.4 |
| 20260507053409 | 50 | 0 | 2.0 | 5.0 | 0.00 | 0.28 | 0.00 | 65 | 1013.5 |
| 20260507052909 | 50 | 0 | 2.0 | 5.0 | 0.00 | 0.28 | 0.00 | 65 | 1013.6 |
| 20260507052410 | 50 | 0 | 2.0 | 4.0 | 0.00 | 0.28 | 0.00 | 65 | 1013.7 |
| 20260507051910 | 50 | 0 | 2.0 | 4.0 | 0.00 | 0.28 | 0.00 | 65 | 1013.8 |
| 20260507051410 | 50 | 344 | 1.0 | 3.0 | 0.00 | 0.28 | 0.00 | 65 | 1013.7 |
| 20260507050912 | 50 | 0 | 1.0 | 3.0 | 0.00 | 0.28 | 0.00 | 65 | 1013.7 |
| 20260507050404 | 50 | 340 | 1.0 | 3.0 | 0.00 | 0.28 | 0.00 | 65 | 1013.7 |
| 20260507045906 | 50 | 342 | 2.0 | 4.0 | 0.00 | 0.28 | 0.00 | 65 | 1013.7 |
| 20260507045403 | 50 | 0 | 2.0 | 4.0 | 0.00 | 0.28 | 0.00 | 64 | 1013.7 |
| 20260507045136 | 50 | 344 | 2.0 | 4.0 | 0.00 | 0.28 | 0.00 | 65 | 1013.8 |
| 20260507044404 | 51 | 0 | 2.0 | 3.0 | 0.00 | 0.28 | 0.00 | 64 | 1013.7 |
| 20260507043904 | 51 | 0 | 1.0 | 3.0 | 0.00 | 0.28 | 0.00 | 64 | 1013.6 |
| 20260507043358 | 51 | 0 | 1.0 | 3.0 | 0.00 | 0.28 | 0.00 | 64 | 1013.7 |
| 20260507042857 | 51 | 0 | 1.0 | 3.0 | 0.00 | 0.28 | 0.00 | 64 | 1013.6 |
| 20260507042630 | 51 | 327 | 1.0 | 3.0 | 0.00 | 0.28 | 0.00 | 64 | 1013.4 |
| 20260507041858 | 51 | 0 | 1.0 | 3.0 | 0.00 | 0.28 | 0.00 | 64 | 1013.5 |
| 20260507041358 | 51 | 327 | 1.0 | 2.0 | 0.00 | 0.28 | 0.00 | 64 | 1013.5 |
| 20260507040858 | 51 | 0 | 1.0 | 3.0 | 0.00 | 0.28 | 0.00 | 64 | 1013.6 |
| 20260507040353 | 51 | 0 | 1.0 | 3.0 | 0.00 | 0.28 | 0.00 | 64 | 1013.5 |
| 20260507040124 | 51 | 0 | 0.0 | 3.0 | 0.00 | 0.28 | 0.28 | 64 | 1013.5 |
| 20260507035353 | 51 | 0 | 0.0 | 0.0 | 0.00 | 0.28 | 0.28 | 65 | 1013.5 |
| 20260507034852 | 51 | 322 | 1.0 | 2.0 | 0.00 | 0.28 | 0.28 | 65 | 1013.5 |
| 20260507034350 | 51 | 323 | 1.0 | 3.0 | 0.00 | 0.28 | 0.28 | 66 | 1013.6 |
| 20260507033853 | 51 | 323 | 1.0 | 3.0 | 0.00 | 0.28 | 0.28 | 66 | 1013.7 |
| 20260507033345 | 51 | 323 | 1.0 | 2.0 | 0.00 | 0.28 | 0.28 | 66 | 1013.4 |
| 20260507033115 | 51 | 324 | 1.0 | 3.0 | 0.00 | 0.28 | 0.28 | 67 | 1013.6 |
| 20260507032346 | 51 | 321 | 1.0 | 3.0 | 0.00 | 0.28 | 0.28 | 68 | 1013.5 |
| 20260507031846 | 51 | 323 | 1.0 | 4.0 | 0.00 | 0.28 | 0.28 | 68 | 1013.8 |
| 20260507031616 | 52 | 0 | 1.0 | 4.0 | 0.00 | 0.28 | 0.28 | 69 | 1013.7 |
| 20260507031116 | 52 | 0 | 2.0 | 4.0 | 0.00 | 0.28 | 0.28 | 69 | 1013.4 |
| 20260507030342 | 52 | 329 | 1.0 | 3.0 | 0.00 | 0.28 | 0.28 | 70 | 1013.4 |
| 20260507030337 | 52 | 0 | 2.0 | 4.0 | 0.00 | 0.28 | 0.28 | 70 | 1013.3 |
| 20260507025340 | 52 | 0 | 0.0 | 0.0 | 0.00 | 0.28 | 0.28 | 70 | 1013.2 |
| 20260507024838 | 52 | 317 | 0.0 | 0.0 | 0.00 | 0.28 | 0.28 | 69 | 1013.1 |
| 20260507024339 | 52 | 318 | 0.0 | 0.0 | 0.00 | 0.28 | 0.28 | 70 | 1013.0 |
| 20260507023837 | 52 | 318 | 0.0 | 0.0 | 0.00 | 0.28 | 0.28 | 69 | 1013.2 |
| 20260507023336 | 52 | 0 | 0.0 | 0.0 | 0.00 | 0.28 | 0.28 | 69 | 1012.9 |
| 20260507022834 | 52 | 317 | 0.0 | 0.0 | 0.00 | 0.28 | 0.28 | 69 | 1012.9 |
| 20260507022330 | 52 | 0 | 0.0 | 0.0 | 0.00 | 0.28 | 0.28 | 69 | 1012.7 |
| 20260507022102 | 53 | 318 | 0.0 | 0.0 | 0.00 | 0.28 | 0.28 | 69 | 1012.6 |
| 20260507021331 | 53 | 0 | 0.0 | 0.0 | 0.00 | 0.28 | 0.28 | 69 | 1012.4 |
| 20260507020827 | 53 | 318 | 0.0 | 0.0 | 0.00 | 0.28 | 0.28 | 69 | 1012.4 |
| 20260507020325 | 53 | 0 | 0.0 | 0.0 | 0.00 | 0.28 | 0.28 | 69 | 1012.5 |
| 20260507015824 | 53 | 0 | 0.0 | 0.0 | 0.00 | 0.28 | 0.28 | 69 | 1012.5 |
| 20260507015555 | 53 | 0 | 0.0 | 0.0 | 0.00 | 0.28 | 0.28 | 69 | 1012.3 |
| 20260507014823 | 53 | 318 | 0.0 | 0.0 | 0.00 | 0.28 | 0.28 | 69 | 1012.1 |
| 20260507014328 | 53 | 318 | 0.0 | 0.0 | 0.00 | 0.28 | 0.28 | 68 | 1011.9 |
| 20260507014324 | 53 | 317 | 0.0 | 0.0 | 0.00 | 0.28 | 0.28 | 68 | 1012.1 |
| 20260507013320 | 53 | 317 | 0.0 | 0.0 | 0.00 | 0.28 | 0.28 | 68 | 1012.1 |
| 20260507012820 | 53 | 317 | 0.0 | 0.0 | 0.00 | 0.28 | 0.28 | 68 | 1012.2 |
| 20260507012320 | 53 | 0 | 0.0 | 0.0 | 0.00 | 0.28 | 0.28 | 68 | 1012.3 |
| 20260507011820 | 53 | 0 | 0.0 | 0.0 | 0.00 | 0.28 | 0.28 | 68 | 1011.9 |
| 20260507011319 | 53 | 317 | 0.0 | 0.0 | 0.00 | 0.28 | 0.28 | 68 | 1011.7 |
| 20260507011050 | 53 | 317 | 0.0 | 0.0 | 0.00 | 0.28 | 0.28 | 68 | 1011.8 |
| 20260507010315 | 53 | 317 | 0.0 | 0.0 | 0.00 | 0.28 | 0.28 | 68 | 1011.8 |
| 20260507005815 | 53 | 317 | 0.0 | 0.0 | 0.00 | 0.28 | 0.28 | 68 | 1011.7 |
| 20260507005316 | 53 | 317 | 0.0 | 0.0 | 0.00 | 0.28 | 0.28 | 67 | 1011.6 |
| 20260507004812 | 53 | 0 | 0.0 | 0.0 | 0.00 | 0.28 | 0.28 | 67 | 1011.8 |
| 20260507004313 | 53 | 0 | 0.0 | 0.0 | 0.00 | 0.28 | 0.28 | 67 | 1011.9 |
| 20260507004043 | 53 | 0 | 0.0 | 0.0 | 0.00 | 0.28 | 0.28 | 67 | 1011.9 |
| 20260507003310 | 53 | 317 | 0.0 | 0.0 | 0.00 | 0.28 | 0.28 | 67 | 1011.7 |
| 20260507002809 | 53 | 0 | 0.0 | 0.0 | 0.00 | 0.28 | 0.28 | 66 | 1012.0 |
| 20260507002311 | 53 | 0 | 0.0 | 0.0 | 0.00 | 0.28 | 0.28 | 66 | 1012.0 |
| 20260507002039 | 53 | 0 | 0.0 | 0.0 | 0.00 | 0.28 | 0.28 | 66 | 1011.9 |
| 20260507001308 | 53 | 0 | 0.0 | 0.0 | 0.00 | 0.28 | 0.28 | 66 | 1011.9 |
| 20260507000808 | 53 | 0 | 0.0 | 0.0 | 0.00 | 0.28 | 0.28 | 66 | 1012.2 |
| 20260507000306 | 53 | 319 | 0.0 | 1.0 | 0.00 | 0.28 | 0.28 | 66 | 1012.6 |
| 20260506235806 | 53 | 0 | 0.0 | 2.0 | 0.00 | 0.28 | 0.28 | 66 | 1012.5 |
| 20260506235307 | 53 | 0 | 0.0 | 2.0 | 0.00 | 0.28 | 0.28 | 66 | 1012.2 |
| 20260506234805 | 53 | 318 | 0.0 | 2.0 | 0.00 | 0.28 | 0.28 | 66 | 1012.1 |
| 20260506234531 | 53 | 319 | 1.0 | 2.0 | 0.00 | 0.28 | 0.28 | 66 | 1012.0 |
| 20260506233802 | 53 | 317 | 1.0 | 2.0 | 0.00 | 0.28 | 0.28 | 66 | 1012.0 |
| 20260506233257 | 53 | 0 | 1.0 | 2.0 | 0.00 | 0.28 | 0.28 | 65 | 1011.6 |
| 20260506232800 | 53 | 0 | 1.0 | 3.0 | 0.00 | 0.28 | 0.28 | 65 | 1011.8 |
| 20260506232531 | 54 | 318 | 1.0 | 3.0 | 0.00 | 0.28 | 0.28 | 65 | 1012.1 |
| 20260506231755 | 54 | 0 | 0.0 | 2.0 | 0.00 | 0.28 | 0.28 | 65 | 1011.9 |
| 20260506231254 | 54 | 319 | 0.0 | 2.0 | 0.00 | 0.28 | 0.28 | 65 | 1011.8 |
| 20260506230753 | 54 | 321 | 0.0 | 3.0 | 0.00 | 0.28 | 0.28 | 65 | 1011.8 |
| 20260506230251 | 54 | 321 | 0.0 | 3.0 | 0.00 | 0.28 | 0.28 | 65 | 1011.8 |
| 20260506225753 | 54 | 0 | 0.0 | 2.0 | 0.00 | 0.28 | 0.28 | 65 | 1011.7 |
| 20260506225525 | 54 | 0 | 1.0 | 2.0 | 0.00 | 0.28 | 0.28 | 65 | 1011.6 |
| 20260506224750 | 54 | 0 | 2.0 | 5.0 | 0.00 | 0.28 | 0.28 | 65 | 1011.6 |
| 20260506224254 | 54 | 0 | 1.0 | 6.0 | 0.00 | 0.28 | 0.28 | 65 | 1011.4 |
| 20260506224249 | 54 | 0 | 2.0 | 6.0 | 0.00 | 0.28 | 0.28 | 65 | 1011.6 |
| 20260506223247 | 54 | 333 | 2.0 | 3.0 | 0.00 | 0.28 | 0.28 | 65 | 1011.4 |
| 20260506222746 | 54 | 0 | 2.0 | 4.0 | 0.00 | 0.28 | 0.28 | 65 | 1011.6 |
| 20260506222245 | 54 | 334 | 2.0 | 4.0 | 0.00 | 0.28 | 0.28 | 65 | 1011.4 |
| 20260506222017 | 54 | 0 | 2.0 | 5.0 | 0.00 | 0.28 | 0.28 | 65 | 1011.4 |
| 20260506221517 | 54 | 336 | 2.0 | 5.0 | 0.00 | 0.28 | 0.28 | 65 | 1011.6 |
| 20260506220744 | 54 | 0 | 3.0 | 6.0 | 0.00 | 0.28 | 0.28 | 65 | 1011.4 |
| 20260506220241 | 54 | 323 | 3.0 | 6.0 | 0.00 | 0.28 | 0.28 | 65 | 1011.2 |
| 20260506215741 | 54 | 0 | 3.0 | 6.0 | 0.00 | 0.28 | 0.28 | 65 | 1011.2 |
| 20260506215241 | 54 | 0 | 3.0 | 5.0 | 0.00 | 0.28 | 0.28 | 65 | 1011.1 |
| 20260506214740 | 54 | 0 | 4.0 | 9.0 | 0.00 | 0.28 | 0.28 | 65 | 1011.1 |
| 20260506214242 | 54 | 0 | 5.0 | 9.0 | 0.00 | 0.28 | 0.28 | 65 | 1011.0 |
| 20260506213739 | 54 | 11 | 4.0 | 8.0 | 0.00 | 0.28 | 0.28 | 65 | 1010.9 |
| 20260506213238 | 54 | 0 | 3.0 | 6.0 | 0.00 | 0.28 | 0.28 | 65 | 1011.0 |
| 20260506212738 | 54 | 0 | 3.0 | 6.0 | 0.00 | 0.28 | 0.28 | 65 | 1010.8 |
| 20260506212511 | 54 | 328 | 3.0 | 8.0 | 0.00 | 0.28 | 0.28 | 64 | 1010.7 |
| 20260506211737 | 55 | 0 | 3.0 | 8.0 | 0.00 | 0.28 | 0.28 | 64 | 1010.7 |
| 20260506211235 | 55 | 13 | 3.0 | 8.0 | 0.00 | 0.28 | 0.28 | 64 | 1010.7 |
| 20260506210735 | 55 | 0 | 3.0 | 8.0 | 0.00 | 0.28 | 0.28 | 64 | 1010.7 |
| 20260506210507 | 55 | 0 | 2.0 | 8.0 | 0.00 | 0.28 | 0.28 | 64 | 1010.6 |
| 20260506205734 | 56 | 0 | 1.0 | 4.0 | 0.00 | 0.28 | 0.28 | 65 | 1010.5 |
| 20260506205504 | 56 | 0 | 2.0 | 4.0 | 0.00 | 0.28 | 0.28 | 65 | 1010.5 |
| 20260506204735 | 56 | 0 | 3.0 | 6.0 | 0.00 | 0.28 | 0.28 | 65 | 1010.4 |
| 20260506204233 | 55 | 0 | 3.0 | 6.0 | 0.00 | 0.28 | 0.28 | 65 | 1010.3 |
| 20260506203733 | 55 | 0 | 3.0 | 6.0 | 0.00 | 0.28 | 0.28 | 65 | 1010.2 |
| 20260506203232 | 55 | 0 | 2.0 | 7.0 | 0.00 | 0.28 | 0.28 | 66 | 1010.2 |